timestamp,wind_dir_avg,wind_spd_avg,wind_spd_max_dir,wind_spd_gust,battery_voltage,lat,long
2022-08-13 00:04:00+00:00,89.0,1.95,86.0,3.12,12.49,47.59359,-54.27349
2022-08-13 00:14:00+00:00,85.0,1.85,69.0,3.03,12.41,47.59359,-54.27349
2022-08-13 00:24:00+00:00,85.0,2.59,78.0,3.8,12.41,47.59359,-54.27349
2022-08-13 00:34:00+00:00,73.0,3.73,57.0,5.32,12.41,47.59359,-54.27349
2022-08-13 00:44:00+00:00,85.0,2.91,100.0,4.44,12.41,47.59359,-54.27349
2022-08-13 00:54:00+00:00,101.0,3.32,98.0,4.79,12.41,47.59359,-54.27349
2022-08-13 01:04:00+00:00,91.0,2.83,131.0,4.47,12.41,47.59359,-54.27349
2022-08-13 01:14:01+00:00,72.0,2.6,56.0,3.71,12.49,47.59359,-54.27349
2022-08-13 01:24:01+00:00,104.0,2.99,98.0,4.88,12.49,47.59359,-54.27349
2022-08-13 01:34:01+00:00,101.0,3.26,107.0,5.17,12.49,47.59359,-54.27349
2022-08-13 01:44:01+00:00,93.0,2.01,87.0,3.32,12.49,47.59359,-54.27349
2022-08-13 01:54:01+00:00,80.0,1.93,61.0,2.52,12.49,47.59359,-54.27349
2022-08-13 02:04:01+00:00,85.0,1.91,90.0,2.88,12.49,47.59359,-54.27349
2022-08-13 02:14:00+00:00,72.0,3.28,62.0,4.88,12.41,47.59359,-54.27349
2022-08-13 02:24:00+00:00,74.0,3.69,67.0,4.92,12.41,47.59359,-54.27349
2022-08-13 02:34:00+00:00,73.0,3.34,72.0,4.57,12.41,47.59359,-54.27349
2022-08-13 02:44:00+00:00,67.0,4.12,64.0,4.89,12.41,47.59359,-54.27349
2022-08-13 02:54:00+00:00,63.0,4.04,63.0,4.54,12.41,47.59359,-54.27349
2022-08-13 03:04:00+00:00,50.0,5.99,47.0,6.95,12.41,47.59359,-54.27349
2022-08-13 03:14:01+00:00,51.0,6.65,52.0,7.24,12.41,47.59359,-54.27349
2022-08-13 03:24:01+00:00,50.0,7.64,52.0,8.2,12.41,47.59359,-54.27349
2022-08-13 03:34:01+00:00,58.0,7.1,54.0,7.68,12.41,47.59359,-54.27349
2022-08-13 03:44:01+00:00,55.0,7.65,55.0,8.14,12.41,47.59359,-54.27349
2022-08-13 03:54:01+00:00,54.0,7.22,53.0,8.0,12.41,47.59359,-54.27349
2022-08-13 04:04:01+00:00,41.0,7.43,44.0,7.92,12.41,47.59359,-54.27349
2022-08-13 04:14:01+00:00,31.0,8.12,36.0,9.55,12.41,47.59359,-54.27349
2022-08-13 04:24:01+00:00,48.0,6.35,48.0,7.01,12.41,47.59359,-54.27349
2022-08-13 04:34:01+00:00,43.0,3.62,63.0,6.4,12.41,47.59359,-54.27349
2022-08-13 04:44:01+00:00,59.0,3.87,62.0,4.86,12.41,47.59359,-54.27349
2022-08-13 04:54:01+00:00,76.0,4.61,90.0,7.56,12.41,47.59359,-54.27349
2022-08-13 05:04:01+00:00,315.0,0.01,73.0,0.0,12.41,47.59359,-54.27349
2022-08-13 05:14:00+00:00,315.0,0.01,73.0,0.0,12.33,47.59359,-54.27349
2022-08-13 05:24:00+00:00,315.0,0.01,53.0,0.0,12.33,47.59359,-54.27349
2022-08-13 05:34:00+00:00,54.0,5.7,50.0,7.17,12.33,47.59359,-54.27349
2022-08-13 05:44:00+00:00,44.0,5.28,35.0,6.17,12.33,47.59359,-54.27349
2022-08-13 05:54:00+00:00,59.0,7.11,57.0,8.42,12.33,47.59359,-54.27349
2022-08-13 06:04:00+00:00,39.0,5.94,38.0,6.62,12.33,47.59359,-54.27349
2022-08-13 06:14:00+00:00,46.0,4.85,51.0,6.36,12.33,47.59359,-54.27349
2022-08-13 06:24:00+00:00,46.0,5.13,50.0,5.86,12.33,47.59359,-54.27349
2022-08-13 06:34:00+00:00,39.0,4.79,45.0,5.88,12.33,47.59359,-54.27349
2022-08-13 06:44:00+00:00,54.0,5.19,59.0,5.56,12.33,47.59359,-54.27349
2022-08-13 06:54:00+00:00,48.0,5.15,54.0,6.16,12.33,47.59359,-54.27349
2022-08-13 07:04:00+00:00,44.0,6.0,40.0,6.6,12.33,47.59359,-54.27349
2022-08-13 07:14:00+00:00,49.0,5.51,61.0,6.98,12.33,47.59359,-54.27349
2022-08-13 07:24:00+00:00,40.0,6.33,38.0,6.95,12.33,47.59359,-54.27349
2022-08-13 07:34:00+00:00,39.0,6.96,38.0,7.38,12.33,47.59359,-54.27349
2022-08-13 07:44:00+00:00,40.0,6.32,38.0,7.26,12.33,47.59359,-54.27349
2022-08-13 07:54:00+00:00,46.0,6.81,50.0,7.94,12.33,47.59359,-54.27349
2022-08-13 08:04:00+00:00,43.0,7.25,44.0,8.1,12.33,47.59359,-54.27349
2022-08-13 08:14:00+00:00,37.0,7.29,38.0,7.85,12.25,47.59359,-54.27349
2022-08-13 08:24:00+00:00,41.0,7.05,43.0,7.57,12.25,47.59359,-54.27349
2022-08-13 08:34:00+00:00,38.0,7.54,37.0,8.39,12.25,47.59359,-54.27349
2022-08-13 08:44:00+00:00,38.0,7.38,40.0,8.61,12.25,47.59359,-54.27349
2022-08-13 08:54:00+00:00,35.0,7.7,36.0,8.39,12.25,47.59359,-54.27349
2022-08-13 09:04:00+00:00,35.0,7.49,37.0,8.14,12.25,47.59359,-54.27349
2022-08-13 09:14:00+00:00,48.0,6.8,47.0,7.73,12.17,47.59359,-54.27349
2022-08-13 09:24:00+00:00,46.0,7.04,46.0,7.61,12.17,47.59359,-54.27349
2022-08-13 09:34:00+00:00,50.0,5.75,50.0,6.22,12.17,47.59359,-54.27349
2022-08-13 09:44:00+00:00,45.0,5.96,43.0,6.81,12.17,47.59359,-54.27349
2022-08-13 09:54:00+00:00,42.0,6.01,44.0,6.77,12.17,47.59359,-54.27349
2022-08-13 10:04:00+00:00,46.0,5.67,45.0,6.17,12.17,47.59359,-54.27349
2022-08-13 10:14:00+00:00,42.0,5.94,40.0,6.58,12.33,47.59359,-54.27349
2022-08-13 10:24:00+00:00,50.0,6.16,50.0,6.67,12.33,47.59359,-54.27349
2022-08-13 10:34:00+00:00,45.0,5.7,43.0,6.52,12.33,47.59359,-54.27349
2022-08-13 10:44:00+00:00,41.0,5.21,40.0,5.99,12.33,47.59359,-54.27349
2022-08-13 10:54:00+00:00,39.0,5.12,38.0,5.85,12.33,47.59359,-54.27349
2022-08-13 11:04:00+00:00,31.0,5.24,32.0,6.13,12.33,47.59359,-54.27349
2022-08-13 11:14:01+00:00,35.0,5.82,35.0,6.23,13.13,47.59359,-54.27349
2022-08-13 11:24:01+00:00,34.0,4.86,33.0,5.44,13.13,47.59359,-54.27349
2022-08-13 11:34:01+00:00,38.0,4.31,46.0,4.74,13.13,47.59359,-54.27349
2022-08-13 11:44:01+00:00,43.0,4.64,42.0,5.16,13.13,47.59359,-54.27349
2022-08-13 11:54:01+00:00,31.0,4.63,31.0,5.19,13.13,47.59359,-54.27349
2022-08-13 12:04:01+00:00,46.0,4.63,45.0,5.28,13.13,47.59359,-54.27349
2022-08-13 12:14:00+00:00,46.0,4.96,48.0,5.43,13.68,47.59359,-54.27349
2022-08-13 12:24:00+00:00,52.0,4.71,56.0,5.18,13.68,47.59359,-54.27349
2022-08-13 12:34:00+00:00,50.0,4.16,48.0,4.62,13.68,47.59359,-54.27349
2022-08-13 12:44:00+00:00,42.0,4.14,40.0,4.76,13.68,47.59359,-54.27349
2022-08-13 12:54:00+00:00,49.0,4.87,50.0,5.47,13.68,47.59359,-54.27349
2022-08-13 13:04:00+00:00,45.0,4.63,49.0,5.16,13.68,47.59359,-54.27349
2022-08-13 13:14:00+00:00,48.0,4.39,48.0,5.0,14.32,47.59359,-54.27349
2022-08-13 13:24:00+00:00,33.0,5.26,35.0,5.77,14.32,47.59359,-54.27349
2022-08-13 13:34:00+00:00,29.0,5.35,29.0,6.02,14.32,47.59359,-54.27349
2022-08-13 13:44:00+00:00,35.0,5.19,35.0,5.67,14.32,47.59359,-54.27349
2022-08-13 13:54:00+00:00,52.0,5.12,54.0,6.07,14.32,47.59359,-54.27349
2022-08-13 14:04:00+00:00,60.0,3.89,57.0,4.41,14.32,47.59359,-54.27349
2022-08-13 14:14:01+00:00,66.0,3.43,68.0,4.11,13.92,47.59359,-54.27349
2022-08-13 14:24:01+00:00,69.0,4.15,70.0,4.66,13.92,47.59359,-54.27349
2022-08-13 14:34:01+00:00,61.0,3.2,61.0,3.64,13.92,47.59359,-54.27349
2022-08-13 14:44:01+00:00,63.0,3.99,63.0,4.85,13.92,47.59359,-54.27349
2022-08-13 14:54:01+00:00,60.0,3.93,54.0,4.68,13.92,47.59359,-54.27349
2022-08-13 15:04:01+00:00,63.0,3.71,63.0,4.54,13.92,47.59359,-54.27349
2022-08-13 15:14:00+00:00,70.0,5.3,75.0,6.23,13.92,47.59359,-54.27349
2022-08-13 15:24:00+00:00,72.0,5.73,72.0,7.59,13.92,47.59359,-54.27349
2022-08-13 15:34:00+00:00,62.0,4.8,63.0,5.55,13.92,47.59359,-54.27349
2022-08-13 15:44:00+00:00,55.0,3.77,54.0,4.17,13.92,47.59359,-54.27349
2022-08-13 15:54:00+00:00,53.0,4.35,54.0,4.91,13.92,47.59359,-54.27349
2022-08-13 16:04:00+00:00,51.0,4.52,52.0,5.12,13.92,47.59359,-54.27349
2022-08-13 16:14:00+00:00,51.0,4.11,55.0,5.04,13.6,47.59359,-54.27349
2022-08-13 16:24:00+00:00,54.0,4.45,55.0,5.03,13.6,47.59359,-54.27349
2022-08-13 16:34:00+00:00,53.0,4.64,53.0,5.14,13.6,47.59359,-54.27349
2022-08-13 16:44:00+00:00,57.0,4.89,59.0,5.72,13.6,47.59359,-54.27349
2022-08-13 16:54:00+00:00,47.0,4.49,56.0,5.69,13.6,47.59359,-54.27349
2022-08-13 17:04:00+00:00,59.0,4.69,68.0,6.49,13.6,47.59359,-54.27349
2022-08-13 17:14:00+00:00,58.0,5.6,63.0,7.25,14.32,47.59359,-54.27349
2022-08-13 17:24:00+00:00,53.0,4.06,52.0,4.5,14.32,47.59359,-54.27349
2022-08-13 17:34:00+00:00,56.0,4.59,60.0,6.55,14.32,47.59359,-54.27349
2022-08-13 17:44:00+00:00,60.0,4.72,66.0,6.22,14.32,47.59359,-54.27349
2022-08-13 17:54:00+00:00,69.0,4.04,70.0,5.34,14.32,47.59359,-54.27349
2022-08-13 18:04:00+00:00,65.0,3.25,56.0,4.43,14.32,47.59359,-54.27349
2022-08-13 18:14:00+00:00,96.0,3.71,94.0,5.47,13.68,47.59359,-54.27349
2022-08-13 18:24:00+00:00,89.0,2.97,96.0,4.24,13.68,47.59359,-54.27349
2022-08-13 18:34:00+00:00,100.0,2.98,100.0,4.4,13.68,47.59359,-54.27349
2022-08-13 18:44:00+00:00,95.0,3.31,86.0,5.11,13.68,47.59359,-54.27349
2022-08-13 18:54:00+00:00,86.0,2.51,91.0,3.59,13.68,47.59359,-54.27349
2022-08-13 19:04:00+00:00,68.0,4.0,68.0,5.35,13.68,47.59359,-54.27349
2022-08-13 19:14:00+00:00,70.0,4.79,70.0,5.35,13.68,47.59359,-54.27349
2022-08-13 19:24:00+00:00,64.0,4.22,60.0,5.01,13.68,47.59359,-54.27349
2022-08-13 19:34:00+00:00,53.0,4.09,51.0,4.53,13.68,47.59359,-54.27349
2022-08-13 19:44:00+00:00,56.0,4.51,58.0,4.88,13.68,47.59359,-54.27349
2022-08-13 19:54:00+00:00,54.0,4.69,52.0,5.07,13.68,47.59359,-54.27349
2022-08-13 20:04:00+00:00,62.0,4.56,59.0,5.05,13.68,47.59359,-54.27349
2022-08-13 20:14:00+00:00,72.0,4.39,72.0,5.46,13.6,47.59359,-54.27349
2022-08-13 20:24:00+00:00,68.0,4.33,68.0,5.33,13.6,47.59359,-54.27349
2022-08-13 20:34:00+00:00,72.0,3.69,76.0,5.37,13.6,47.59359,-54.27349
2022-08-13 20:44:00+00:00,83.0,3.55,94.0,4.82,13.6,47.59359,-54.27349
2022-08-13 20:54:00+00:00,69.0,2.8,73.0,3.98,13.6,47.59359,-54.27349
2022-08-13 21:04:00+00:00,65.0,3.87,72.0,4.42,13.6,47.59359,-54.27349
2022-08-13 21:14:00+00:00,60.0,3.97,59.0,4.37,13.29,47.59359,-54.27349
2022-08-13 21:24:00+00:00,67.0,3.22,72.0,3.73,13.29,47.59359,-54.27349
2022-08-13 21:34:00+00:00,71.0,4.01,69.0,4.53,13.29,47.59359,-54.27349
2022-08-13 21:44:00+00:00,74.0,3.82,69.0,4.64,13.29,47.59359,-54.27349
2022-08-13 21:54:00+00:00,71.0,4.01,67.0,5.03,13.29,47.59359,-54.27349
2022-08-13 22:04:00+00:00,81.0,3.13,76.0,3.86,13.29,47.59359,-54.27349
2022-08-13 22:14:00+00:00,70.0,4.17,73.0,4.86,12.97,47.59359,-54.27349
2022-08-13 22:24:00+00:00,74.0,3.55,79.0,4.81,12.97,47.59359,-54.27349
2022-08-13 22:34:00+00:00,77.0,3.27,62.0,4.61,12.97,47.59359,-54.27349
2022-08-13 22:44:00+00:00,82.0,2.86,100.0,4.07,12.97,47.59359,-54.27349
2022-08-13 22:54:00+00:00,70.0,3.46,64.0,4.24,12.97,47.59359,-54.27349
2022-08-13 23:04:00+00:00,69.0,4.07,67.0,4.87,12.97,47.59359,-54.27349
2022-08-13 23:14:00+00:00,65.0,4.52,64.0,5.04,12.49,47.59359,-54.27349
2022-08-13 23:24:00+00:00,58.0,4.23,57.0,4.92,12.49,47.59359,-54.27349
2022-08-13 23:34:00+00:00,55.0,4.13,54.0,4.54,12.49,47.59359,-54.27349
2022-08-13 23:44:00+00:00,52.0,5.1,54.0,5.76,12.49,47.59359,-54.27349
2022-08-13 23:54:00+00:00,54.0,5.1,53.0,5.67,12.49,47.59359,-54.27349
